www.pogodaiklimat.ru

Погода и климат >> Архив погоды >> Россия >> Бурятия >> Нижнеангарск


АРХИВ ПОГОДЫ в Нижнеангарске

Время (UTC), дата Ветер
(напр.,м/с)
 
Видим.   Явления Облачность Т
(С)
Тd
(С)
f
(%)
Тe
(С)
Тes
(С)
Комфортность P
(гПа)
Po
(гПа)
Тmin
(С)
Tmax
(С)
R
(мм)
R24
(мм)
S
(см)
06 15.09 ЮЗ 3 50 км 10/4 1000 м
[Sc Ac und]
+4.7 -6.4 44 +2 +3 1015.6 958.1
09 15.09 ЮЗ 4 50 км 9/6 1000 м
[Cb cap Ac trans]
+4.9 -6.0 45 +1 +2 1015.0 957.6
12 15.09 З 3 н/о 9/4 1000 м
[Cb cap Ac trans]
+3.8 -5.9 49 +1 +1 1014.5 956.9 +5.0
15 15.09 З 3 н/о 10/6 1000 м
[Cb cap Ac und]
+4.4 -3.1 58 +1 +1 1012.9 955.6
18 15.09 З 3 н/о {ливн. осадки} 10/6 1000 м
[Cb cap Ac und]
+3.6 +0.9 82 -0 -0 1010.6 953.2
21 15.09 З 2 н/о слаб. ливневой дождь 10/10 1000 м
[Cb cap]
+3.3 +1.5 88 0 0 1009.1 951.8
00 16.09 С 1 50 км {ливн. осадки} 3/3 1000 м
[Cb cap]
+4.2 +2.4 88 +3 +3 1009.3 952.1 +1.4 2
03 16.09 В 2 50 км 4/4 1000 м
[Sc]
+5.6 +2.0 78 +3 +7 1010.2 953.2
06 16.09 С 3
{10}
50 км в посл. час крупа {ливн. осадки} 8/8 1000 м
[Cb cap]
+6.6 -6.0 40 +4 +5 1011.9 954.9
09 16.09 С 2
{10}
50 км 3/3 1000 м
[Sc]
+7.4 -8.3 32 +6 +7 1014.1 957.2
12 16.09 СЗ 1 н/о 3/3 1000 м
[Sc]
+2.5 -5.0 58 +1 +1 1018.9 960.7 +9.4 0.0
15 16.09 С 1 н/о 3/3 1000 м
[Sc]
+0.5 -4.9 67 -1 -1 1021.7 963.1
18 16.09 СЗ 1 н/о 1/1 1000 м
[Sc]
+0.7 -6.4 59 -1 -1 1023.4 964.6
21 16.09 СЗ 1 н/о 1/1 1000 м
[Sc]
+0.6 -6.2 60 -1 -1 1025.0 966.2
00 17.09 СЗ 2 50 км 3/3 1000 м
[Sc]
+4.4 -7.2 43 +2 +3 1025.4 967.3 0.0
03 17.09 З 3 50 км 6/4 1000 м
[Sc Ci fib]
+6.2 -6.3 40 +4 +7 1025.9 968.1
06 17.09 ЮЗ 5 50 км 9/5 1000 м
[Sc Ac trans Ci fib]
+6.5 -6.7 38 +3 +4 1025.7 968.0
09 17.09 З 2 50 км 10/8 1000 м
[Cb cap Ac trans Ci sp]
+5.5 -2.2 58 +3 +4 1026.0 968.1
12 17.09 СЗ 2 н/о слаб. ливневой дождь 10/8 1000 м
[Cb cap Ac As]
+3.8 +0.9 81 +1 +1 1026.6 968.3 +7.2 0.1
15 17.09 СЗ 1 н/о {ливн. осадки} 10/5 1000 м
[Cb cap Ac As]
+3.9 +1.0 81 +3 +3 1025.4 967.2
18 17.09 З 3 н/о {ливн. осадки} 10/4 1000 м
[Sc Ac trans Ci sp]
+6.3 +0.8 68 +3 +3 1023.9 966.3
21 17.09 З 2 н/о 10/6 1000 м
[Sc Ac As]
+6.9 +1.3 67 +5 +5 1023.0 965.6
00 18.09 З 1 50 км 10/4 1000 м
[Sc Ac trans Ci sp]
+7.8 +1.4 64 +7 +8 1022.1 964.9 +2.8 0.4
03 18.09 ЮЗ 3 50 км 10/10 1000 м
[Sc]
+8.9 +2.5 64 +7 +7 1020.7 963.8
06 18.09 ЮВ 1 50 км 10/0
[Ac trans Ci sp]
+11.0 +3.1 58 +11 +16 1018.0 961.7
09 18.09 СЗ 1 50 км 4/0
[Ac trans Ci fib]
+11.1 +3.8 61 +11 +12 1016.0 959.8
12 18.09 штиль 0 н/о {ливн. осадки} 10/10 1000 м
[Cb cap]
+7.5 +6.2 91 +7 +7 1017.2 960.3 +12.3 0.9
15 18.09 СЗ 1 н/о в посл. час ливневой дождь 9/5 1000 м
[Cb cap Ci fib]
+7.2 +5.1 86 +6 +6 1017.0 960.1
18 18.09 штиль 0 н/о слаб. ливневой дождь 10/10 1000 м
[Cb cap]
+8.0 +6.9 93 +7 +7 1015.1 958.4
21 18.09 З 2 н/о слаб. ливневой дождь 10/8 1000 м
[Cb cap Ac trans Ci fib]
+8.2 +6.8 91 +6 +6 1014.6 958.0
00 19.09 З 2 50 км в посл. час ливневой дождь 10/8 1000 м
[Cb cap Ac trans Ci fib]
+9.9 +5.2 73 +9 +9 1016.1 959.7 +6.7 3
03 19.09 ЮВ 2 50 км 10/5 1000 м
[Cb cap Ac lent Ci fib]
+11.8 +4.8 62 +11 +12 1016.6 960.6
06 19.09 ЮЗ 4 50 км 6/3 1000 м
[Sc Ac trans]
+13.5 +4.2 53 +12 +14 1016.4 960.6
09 19.09 ЮЗ 4
{10}
20 км в посл. час ливневой дождь 8/8 1000 м
[Cb cap]
+11.7 +6.3 69 +10 +10 1017.3 961.2
12 19.09 СЗ 1 н/о {ливн. осадки} 6/6 1000 м
[Sc]
+8.8 +4.0 72 +8 +8 1019.2 962.4 +14.8 0.1
15 19.09 СЗ 1 н/о в посл. час ливневой дождь 4/4 1000 м
[Cb cap]
+6.3 +4.5 88 +5 +5 1021.6 964.2
18 19.09 С 2 н/о {ливн. осадки} 3/3 1000 м
[Sc]
+6.2 +3.2 81 +4 +4 1021.8 964.3
21 19.09 СЗ 2 н/о 4/4 1000 м
[Sc]
+5.7 +3.5 86 +3 +3 1022.8 965.1
00 20.09 В 1 50 км 10/5 1000 м
[Cb cap Ac trans Ci sp]
+7.0 +5.7 91 +6 +6 1023.1 965.8 +5.0 0.6
03 20.09 Ю 2 20 км слаб. ливневой дождь 10/8 1000 м
[Cb cap Ac As]
+9.4 +8.2 92 +8 +8 1023.0 966.2
06 20.09 ЮЗ 1 50 км слаб. ливневой дождь 10/8 1000 м
[Cb cap Ac trans Ci sp]
+9.9 +8.2 89 +9 +10 1022.1 965.4
09 20.09 ЮЗ 2 50 км {ливн. осадки} 10/8 1000 м
[Cb cap Ac trans Ci sp]
+11.6 +8.1 79 +11 +11 1021.3 965.0
12 20.09 З 2 н/о {ливн. осадки} 8/4 1000 м
[Sc Ac trans Ci fib]
+11.2 +7.0 75 +10 +10 1021.3 964.9 +11.7 1
15 20.09 СЗ 1 н/о 5/1 1000 м
[Sc Ci fib]
+9.1 +6.1 81 +9 +9 1021.5 964.6
18 20.09 СЗ 1 н/о 6/1 1000 м
[Sc Ci fib]
+8.1 +5.2 82 +7 +7 1021.2 964.2
21 20.09 СЗ 2 н/о 3/1 1000 м
[Sc Ci fib]
+6.6 +5.0 90 +4 +4 1020.7 963.4
00 21.09 штиль 0 50 км 6/0
[Ci fib]
+8.4 +6.6 88 +8 +8 1020.3 963.4 +6.2
03 21.09 В 2 50 км 8/0
[Ci fib]
+12.7 +8.0 73 +12 +16 1018.6 962.7
06 21.09 Ю 2 50 км 8/0
[Ci fib]
+15.4 +6.5 55 +15 +20 1016.8 961.4
09 21.09 ЮЗ 2 50 км 8/3 1000 м
[Sc Ac lent Ci fib]
+15.3 +4.1 47 +15 +16 1016.5 961.1
12 21.09 СЗ 1 н/о {ливн. осадки} 8/8 1000 м
[Cb cap]
+11.1 +5.4 68 +11 +11 1017.1 960.9 +17.0 0.0
15 21.09 СЗ 1 н/о 6/6 1000 м
[Cb cap]
+11.0 +5.4 68 +11 +11 1016.7 960.5
18 21.09 С 1 н/о слаб. ливневой дождь 10/10 1000 м
[Cb cap]
+9.8 +8.9 94 +9 +9 1018.4 961.9
21 21.09 СЗ 2 н/о {ливн. осадки} 10/10 1000 м
[Cb cap]
+9.7 +7.8 88 +8 +8 1020.1 963.5
00 22.09 СЗ 2
{11}
50 км {ливн. осадки} 3/3 1000 м
[Sc]
+10.7 +3.9 63 +10 +10 1021.8 965.2 +9.2 3
03 22.09 Ю 3 50 км 4/4 1000 м
[Sc]
+13.0 +2.6 49 +12 +15 1023.5 967.3

 

Местоположение метеостанции Нижнеангарск (Бурятия, Россия): широта 55.78 долгота 109.50 высота над уровнем моря 479 м.

В архиве по умолчанию представлена погода в Нижнеангарске за последнюю неделю. Архивные данные за месяц целиком и за предыдущие месяцы, начиная с января 2011 года, Вы можете получить, выбрав интересующий диапазон дат из раскрывающегося списка и нажав кнопку "Ввод!".


*Определитесь, кто Вы:
робот инопланетянин человек

Внимание! Время в таблицах - всемирное. Для получения местного времени необходимо прибавить поправку, которая равна 8 ч.

Смотрите также архив погоды в соседних городах и на ближайших метеорологических станциях:

Погода в Даване (Бурятия, Россия) (44 км)
Погода в Томпе (Бурятия, Россия) (76 км)
Погода в Казачинске (Иркутская область, Россия) (132 км)
Погода в Караме (Иркутская область, Россия) (139 км)
Погода в Баргузинском Заповеднике (Бурятия, Россия) (161 км)
Погода в Курумкане (Бурятия, Россия) (170 км)
Погода в Солнечной (Иркутская область, Россия) (212 км)
Погода в Тырке (Иркутская область, Россия) (215 км)
Погода на Большом Ушканьем Острове (Бурятия, Россия) (224 км)
Погода в Орлинге (Иркутская область, Россия) (233 км)

Пояснения к столбцам:

Ветер - указаны скорость ветра в м/с - средняя за 10 мин, порывы в срок и между сроками (в фигурных скобках) и направление, откуда дует ветер: С - северный, СВ - северо-восточный, В - восточный, ЮВ - юго-восточный, Ю - южный, ЮЗ - юго-западный, З - западный, СЗ - северо-западный.
Видимость - горизонтальная дальность видимости в метрах или километрах. При видимости от 1 до 10 км при отсутствии осадков обычно наблюдается дымка, при ухудшении видимости до 1 км и менее - туман. В сухую погоду видимость может ухудшаться дымом, пылью или мглою.
Явления - указаны атмосферные явления, наблюдавшиеся в срок или в последний час перед сроком; фигурными скобками обозначены явления, наблюдавшиеся между сроками (за 1-3 часа до срока); квадратными скобками обозначены град или гололедные отложения с указанием их диаметра в мм.
Облачность - указаны через наклонную черту общая и нижняя облачность в баллах и высота нижней границы облаков в метрах; квадратными скобками обозначены формы облаков: Ci - перистые, Cs - перисто-слоистые, Cc - перисто-кучевые, Ac - высококучевые, As - высокослоистые, Sc - слоисто-кучевые, Ns - слоисто-дождевые, Cu - кучевые, Cb - кучево-дождевые. Подробнее классификацию облаков см. в Атласе облаков (PDF).
T - Температура воздуха - температура, измеренная на высоте 2 м над землей.
Td - Температура точки росы - температура, при понижении до которой содержащийся в воздухе водяной пар достигнет насыщения.
f - Относительная влажность воздуха - влажноcть воздуха, измеренная на высоте 2 м над землей.
Te - Эффективная температура - температура, которую ощущает одетый по сезону человек в тени. Характеристика душности погоды. При расчете учитывается влияние влажности воздуха и скорости ветра на теплоощущения человека.
Tes - Эффективная температура на солнце - температура, которую ощущает человек, с поправкой на солнечный нагрев. Характеристика знойности погоды. Зависит от высоты солнца над горизонтом, облачности и скорости ветра. Ночью, в пасмурную погоду, а также при ветре 12 м/с и более поправка равна нулю.
P - Атмосферное давление - приведенное к уровню моря атмосферное давление.
Po - Атмосферное давление - измеренное на уровне метеостанции атмосферное давление.
Tmin - Минимальная температура - минимум температуры воздуха на высоте 2 м над землей.
Tmax - Максимальная температура - максимум температуры воздуха на высоте 2 м над землей.
R - Количество осадков - Количество выпавших осадков за период времени, мм. При наведении курсора мыши на число - период времени, за который выпало указанное количество осадков.
R24 - Количество осадков - Количество выпавших осадков за 24 часа, мм.
S - Снежный покров - Высота снежного покрова, см. При наведении курсора мыши на число - состояние снежного покрова и степень покрытия местности в баллах.